FLYING LAPTOP

Last updated on Thu Nov 21 2024 00:03:26 GMT+0000 (Coordinated Universal Time)

1 42831U 17042G 24325.57868572 .00005105 00000+0 45001-3 0 9999 2 42831 97.3906 137.6962 0010744 271.0372 88.9619 14.96805623400511
UTC large
Height (km)
Speed (km/s)
/
Latitude / Longitude
Inclination (degrees)
Orbital Period (minutes)
Azimuth
Elevation
Range (km)
Doppler Factor

Next 0 passes for location: London (51.5072 / 0.1276)

Sorry there are no passes over London.